EW0427 Weather Reports


Display with metric or nautical units.
time (UTC)temp
F
wind
direction
speed
MPH
gust
MPH
rain 1hr
in
rain 24hr
in
rain mn
in
humidity
%
barometer
mb
20190916060109 65 232 0.0 3.0 0.00 0.00 0.00 91 1017.9
20190916054557 65 232 1.0 5.0 0.00 0.00 0.00 91 1017.7
20190916053105 65 192 1.0 4.0 0.00 0.00 0.00 92 1018.1
20190916050031 65 192 0.0 3.0 0.00 0.00 0.00 92 1018.1
20190916044544 65 192 0.0 0.0 0.00 0.00 0.00 92 1017.9
20190916043051 65 192 0.0 0.0 0.00 0.00 0.00 93 1017.8
20190916041538 66 192 0.0 0.0 0.00 0.00 0.00 93 1017.9
20190916040033 66 192 0.0 0.0 0.00 0.00 0.00 93 1018.0
20190916034516 66 192 0.0 0.0 0.00 0.00 0.00 93 1018.1
20190916033015 65 192 0.0 0.0 0.00 0.00 0.00 93 1017.9
20190916031516 66 192 0.0 0.0 0.00 0.00 0.00 93 1018.0
20190916030040 66 192 0.0 0.0 0.00 0.00 0.00 92 1018.0
20190916024511 66 192 0.0 0.0 0.00 0.00 0.00 92 1018.1
20190916023024 66 192 0.0 0.0 0.00 0.00 0.00 92 1017.9
20190916021524 66 192 0.0 0.0 0.00 0.00 0.00 91 1017.9
20190916020010 67 192 0.0 0.0 0.00 0.00 0.00 91 1018.0
20190916014509 67 192 0.0 0.0 0.00 0.00 0.00 90 1018.1
20190916013009 67 192 0.0 0.0 0.00 0.00 0.00 90 1018.1
20190916011514 67 192 0.0 0.0 0.00 0.00 0.00 90 1017.9
20190916010009 67 192 0.0 0.0 0.00 0.00 0.00 89 1018.2
20190916004510 67 192 0.0 4.0 0.00 0.00 0.00 89 1018.1
20190916003006 68 71 0.0 0.0 0.00 0.00 0.00 89 1017.9
20190916001521 68 71 0.0 0.0 0.00 0.00 0.00 88 1017.9
20190916000003 69 71 0.0 0.0 0.00 0.00 0.00 87 1018.3
20190915234506 69 71 0.0 0.0 0.00 0.00 0.00 86 1018.3
20190915233008 69 71 0.0 0.0 0.00 0.00 0.00 84 1018.3
20190915231501 70 71 0.0 0.0 0.00 0.00 0.00 84 1018.2
20190915224800 71 74 0.0 0.0 0.00 0.00 0.00 81 1018.6
20190915223152 71 151 0.0 0.0 0.00 0.00 0.00 80 1018.5
20190915221724 71 151 2.0 4.0 0.00 0.00 0.00 79 1018.3
20190915220221 71 187 0.0 3.0 0.00 0.00 0.00 78 1018.3
20190915214639 72 190 1.0 6.0 0.00 0.00 0.00 77 1019.0
20190915213142 72 166 1.0 5.0 0.00 0.00 0.00 76 1019.0
20190915211627 73 167 1.0 4.0 0.00 0.00 0.00 75 1019.2
20190915210157 73 234 0.0 8.0 0.00 0.00 0.00 73 1019.1
20190915204639 74 236 2.0 9.0 0.00 0.00 0.00 72 1019.1
20190915203123 73 229 5.0 9.0 0.00 0.00 0.00 71 1019.5
20190915201626 73 209 0.0 4.0 0.00 0.00 0.00 77 1019.7
20190915200107 71 161 0.0 5.0 0.00 0.00 0.00 79 1019.8
20190915194627 71 232 0.0 7.0 0.00 0.00 0.00 80 1020.1
20190915193242 71 196 3.0 7.0 0.00 0.00 0.00 80 1020.4
20190915191558 71 235 2.0 7.0 0.00 0.00 0.00 81 1020.6
20190915190147 70 179 1.0 4.0 0.00 0.00 0.00 82 1020.5
20190915184614 71 205 1.0 3.0 0.00 0.00 0.00 81 1020.6
20190915183058 71 230 2.0 5.0 0.00 0.00 0.00 80 1021.7
20190915181625 71 241 4.0 8.0 0.00 0.00 0.00 78 1022.1
20190915180118 71 243 4.0 8.0 0.00 0.00 0.00 77 1022.0
20190915174608 71 226 2.0 11.0 0.00 0.00 0.00 78 1021.9
20190915173101 71 257 2.0 5.0 0.00 0.00 0.00 78 1021.9
20190915171615 71 257 2.0 7.0 0.00 0.00 0.00 77 1021.9
20190915170058 71 242 2.0 6.0 0.00 0.00 0.00 77 1021.9
20190915164557 72 251 2.0 8.0 0.00 0.00 0.00 76 1021.9
20190915163106 72 259 4.0 8.0 0.00 0.00 0.00 76 1021.8
20190915161535 72 234 3.0 7.0 0.00 0.00 0.00 78 1021.7
20190915160059 72 231 1.0 6.0 0.00 0.00 0.00 79 1021.8
20190915153028 70 248 3.0 6.0 0.00 0.00 0.00 83 1022.0
20190915151552 69 180 1.0 7.0 0.00 0.00 0.00 84 1021.9
20190915150044 68 225 3.0 6.0 0.00 0.00 0.00 88 1022.1
20190915144520 66 213 1.0 3.0 0.00 0.00 0.00 90 1022.4
20190915143013 66 217 0.0 3.0 0.00 0.00 0.00 90 1022.3
20190915141557 66 222 0.0 4.0 0.00 0.00 0.00 89 1022.1
20190915140015 66 298 0.0 5.0 0.00 0.00 0.00 90 1021.8
20190915134516 66 298 0.0 2.0 0.00 0.01 0.00 92 1021.9
20190915133003 64 298 0.0 0.0 0.00 0.01 0.00 93 1021.9
20190915130135 62 298 0.0 1.0 0.00 0.01 0.00 96 1022.2
20190915124644 60 298 0.0 0.0 0.00 0.01 0.00 96 1022.1
20190915123120 59 298 0.0 0.0 0.00 0.01 0.00 96 1022.0
20190915121636 58 298 0.0 0.0 0.00 0.01 0.00 96 1021.7
20190915120156 56 298 0.0 0.0 0.00 0.01 0.00 96 1021.8
20190915114637 54 298 0.0 0.0 0.00 0.01 0.00 96 1021.6
20190915113059 54 298 0.0 0.0 0.00 0.01 0.00 95 1021.6
20190915111627 54 299 0.0 0.0 0.00 0.01 0.00 95 1021.5
20190915110114 54 298 0.0 0.0 0.00 0.01 0.00 95 1021.6
20190915104622 54 299 0.0 0.0 0.00 0.01 0.00 95 1021.9
20190915103103 54 299 0.0 0.0 0.00 0.01 0.00 95 1021.8
20190915101639 54 299 0.0 0.0 0.00 0.01 0.00 95 1021.4
20190915100153 55 299 0.0 0.0 0.00 0.01 0.00 95 1021.3
20190915094637 55 298 0.0 0.0 0.00 0.01 0.00 95 1021.3
20190915091632 55 299 0.0 0.0 0.00 0.01 0.00 95 1021.6
20190915090101 56 299 0.0 0.0 0.00 0.01 0.00 95 1021.5
20190915084544 56 299 0.0 0.0 0.00 0.01 0.00 95 1021.7
20190915083103 56 299 0.0 1.0 0.00 0.01 0.00 95 1021.6
20190915081538 56 298 0.0 0.0 0.00 0.01 0.00 95 1021.6
20190915080037 56 299 0.0 0.0 0.00 0.01 0.00 95 1021.3
20190915074548 56 299 0.0 0.0 0.00 0.04 0.00 95 1021.5
20190915073023 55 298 0.0 0.0 0.00 0.04 0.00 95 1021.8
20190915071543 55 298 0.0 0.0 0.00 0.04 0.00 95 1021.9
20190915070047 55 299 0.0 0.0 0.00 0.04 0.00 95 1021.9
20190915064524 55 299 0.0 0.0 0.00 0.11 0.00 95 1022.0
20190915063022 55 299 0.0 0.0 0.00 0.11 0.00 95 1022.4
20190915061523 55 298 0.0 0.0 0.00 0.11 0.00 95 1022.4